Wrangell, AK

8:41 AM AKDT on May 22, 2018 (GMT -0800)
Wrangell

Weather History for PAWG - September, 2013

Change the Weather History Date:

Tuesday, September 3, 2013

  Actual Average Record
Temperature  
Mean Temperature 60 °F -  
Max Temperature 69 °F 59 °F 72 °F (1988)
Min Temperature 51 °F 48 °F 40 °F (1962)
Degree Days  
Heating Degree Days 5    
Growing Degree Days 10 (Base 50)    
Moisture  
Dew Point 51 °F    
Average Humidity 78    
Maximum Humidity 94    
Minimum Humidity 56    
Precipitation  
Precipitation 0.00 in - - ()
Sea Level Pressure  
Sea Level Pressure 29.99 in    
Wind  
Wind Speed 3 mph (West)    
Max Wind Speed 7 mph    
Max Gust Speed -    
Visibility 9 miles    
Events      
Averages and records for this station are not official NWS values.
T = Trace of Precipitation, MM = Missing Value Source: NWS Daily Summary

Daily Weather History Graph

Daily Weather History Graph

Search for Another Location

Airport or City:

Astronomy

Sep. 03, 2013 Rise Set
Actual Time 5:57 AM AKDT 7:38 PM AKDT
Civil Twilight 5:17 AM AKDT 8:17 PM AKDT
Nautical Twilight 4:28 AM AKDT 9:06 PM AKDT
Astronomical Twilight 3:30 AM AKDT 10:03 PM AKDT
Moon 4:09 AM AKDT (9/3) 6:31 PM AKDT (9/3)
Length of Visible Light 14h 59m
Length of Day
13h 40m
Waning Crescent, 3% of the Moon is Illuminated
Sep 3
Waning Crescent
Sep 5
New
Sep 12
First Quarter
Sep 19
Full
Sep 26
Last Quarter

Hourly Weather History & Observations

Time (AKDT) Temp. Dew Point Humidity Pressure Visibility Wind Dir Wind Speed Gust Speed Precip Events Conditions
12:16 AM 53.6 °F 48.2 °F 82% 30.02 in 10.0 mi Calm Calm - N/A   Clear
12:36 AM 53.6 °F 50.0 °F 88% 30.02 in 10.0 mi ESE 3.5 mph - N/A   Clear
12:56 AM 53.6 °F 48.2 °F 82% 30.02 in 10.0 mi SE 4.6 mph - N/A   Clear
1:16 AM 53.6 °F 48.2 °F 82% 30.02 in 10.0 mi ESE 4.6 mph - N/A   Clear
1:36 AM 53.6 °F 48.2 °F 82% 30.02 in 10.0 mi SE 4.6 mph - N/A   Clear
1:56 AM 53.6 °F 48.2 °F 82% 30.01 in 10.0 mi SE 3.5 mph - N/A   Clear
2:16 AM 51.8 °F 48.2 °F 88% 30.01 in 10.0 mi SE 4.6 mph - N/A   Clear
2:36 AM 53.6 °F 48.2 °F 82% 30.01 in 10.0 mi SSE 5.8 mph - N/A   Clear
2:56 AM 53.6 °F 48.2 °F 82% 30.01 in 10.0 mi SE 5.8 mph - N/A   Clear
3:16 AM 53.6 °F 48.2 °F 82% 30.01 in 10.0 mi SSE 5.8 mph - N/A   Clear
3:36 AM 53.6 °F 48.2 °F 82% 30.01 in 10.0 mi SE 4.6 mph - N/A   Clear
3:56 AM 53.6 °F 48.2 °F 82% 30.01 in 10.0 mi SE 4.6 mph - N/A   Clear
4:16 AM 53.6 °F 48.2 °F 82% 30.01 in 10.0 mi SE 4.6 mph - N/A   Clear
4:36 AM 51.8 °F 48.2 °F 88% 30.01 in 10.0 mi SSE 4.6 mph - N/A   Clear
4:56 AM 51.8 °F 48.2 °F 88% 30.01 in 10.0 mi SE 4.6 mph - N/A   Partly Cloudy
5:16 AM 51.8 °F 48.2 °F 88% 30.01 in 5.0 mi South 4.6 mph - N/A   Partly Cloudy
5:36 AM 51.8 °F 48.2 °F 88% 30.01 in 10.0 mi Calm Calm - N/A   Clear
5:56 AM 51.8 °F 48.2 °F 88% 30.02 in 10.0 mi SE 3.5 mph - N/A   Scattered Clouds
6:16 AM 51.8 °F 48.2 °F 88% 30.02 in 10.0 mi Calm Calm - N/A   Scattered Clouds
6:36 AM 51.8 °F 46.4 °F 82% 30.02 in 10.0 mi Calm Calm - N/A   Scattered Clouds
6:56 AM 51.8 °F 48.2 °F 88% 30.02 in 0.5 mi ESE 3.5 mph - N/A   Mostly Cloudy
7:16 AM 53.6 °F 48.2 °F 82% 30.02 in 0.5 mi ESE 3.5 mph - N/A   Mostly Cloudy
7:36 AM 53.6 °F 50.0 °F 88% 30.02 in 0.5 mi SE 4.6 mph - N/A   Mostly Cloudy
7:56 AM 53.6 °F 50.0 °F 88% 30.02 in 2.0 mi ESE 4.6 mph - N/A   Mostly Cloudy
8:16 AM 53.6 °F 51.8 °F 94% 30.02 in 2.0 mi Calm Calm - N/A   Mostly Cloudy
8:36 AM 53.6 °F 48.2 °F 82% 30.02 in 0.5 mi NNW 4.6 mph - N/A   Mostly Cloudy
8:56 AM 53.6 °F 50.0 °F 88% 30.02 in 0.5 mi NNW 3.5 mph - N/A   Scattered Clouds
9:16 AM 53.6 °F 48.2 °F 82% 30.02 in 0.5 mi NNW 4.6 mph - N/A   Scattered Clouds
9:32 AM 53.6 °F 48.2 °F 82% 30.02 in 1.0 mi Calm Calm - N/A   Scattered Clouds
9:36 AM 53.6 °F 48.2 °F 82% 30.02 in 1.0 mi NNW 3.5 mph - N/A   Scattered Clouds
9:56 AM 53.6 °F 50.0 °F 88% 30.01 in 10.0 mi Calm Calm - N/A   Scattered Clouds
10:16 AM 55.4 °F 51.8 °F 88% 30.01 in 10.0 mi Calm Calm - N/A   Scattered Clouds
10:36 AM 55.4 °F 51.8 °F 88% 30.01 in 10.0 mi Calm Calm - N/A   Scattered Clouds
10:56 AM 57.2 °F 51.8 °F 82% 30.01 in 10.0 mi Calm Calm - N/A   Partly Cloudy
11:16 AM 57.2 °F 51.8 °F 82% 30.01 in 10.0 mi NNW 4.6 mph - N/A   Partly Cloudy
11:36 AM 59.0 °F 53.6 °F 82% 30.00 in 10.0 mi NNW 5.8 mph - N/A   Partly Cloudy
11:56 AM 60.8 °F 53.6 °F 77% 30.00 in 10.0 mi NNW 5.8 mph - N/A   Partly Cloudy
12:16 PM 60.8 °F 53.6 °F 77% 30.00 in 10.0 mi NNW 5.8 mph - N/A   Partly Cloudy
12:36 PM 64.4 °F 53.6 °F 68% 30.00 in 10.0 mi NNW 5.8 mph - N/A   Partly Cloudy
12:56 PM 66.2 °F 55.4 °F 68% 30.00 in 10.0 mi WNW 4.6 mph - N/A   Partly Cloudy
1:16 PM 68.0 °F 53.6 °F 60% 30.00 in 10.0 mi WNW 5.8 mph - N/A   Partly Cloudy
1:36 PM 66.2 °F 55.4 °F 68% 29.99 in 10.0 mi SW 6.9 mph - N/A   Partly Cloudy
1:56 PM 69.8 °F 55.4 °F 60% 29.99 in 10.0 mi WNW 3.5 mph - N/A   Partly Cloudy
2:16 PM 69.8 °F 55.4 °F 60% 29.98 in 10.0 mi NW 4.6 mph - N/A   Partly Cloudy
2:36 PM 69.8 °F 53.6 °F 56% 29.98 in 10.0 mi NNW 5.8 mph - N/A   Partly Cloudy
2:56 PM 69.8 °F 55.4 °F 60% 29.97 in 10.0 mi NW 5.8 mph - N/A   Partly Cloudy
3:16 PM 69.8 °F 55.4 °F 60% 29.97 in 10.0 mi NNW 4.6 mph - N/A   Partly Cloudy
3:36 PM 66.2 °F 55.4 °F 68% 29.97 in 10.0 mi NW 6.9 mph - N/A   Partly Cloudy
3:56 PM 64.4 °F 55.4 °F 73% 29.96 in 10.0 mi NNW 4.6 mph - N/A   Partly Cloudy
4:16 PM 64.4 °F 55.4 °F 73% 29.96 in 10.0 mi NW 5.8 mph - N/A   Partly Cloudy
4:36 PM 62.6 °F 53.6 °F 72% 29.95 in 10.0 mi NNW 5.8 mph - N/A   Partly Cloudy
4:56 PM 64.4 °F 53.6 °F 68% 29.94 in 10.0 mi NNW 4.6 mph - N/A   Partly Cloudy
5:16 PM 64.4 °F 55.4 °F 73% 29.94 in 10.0 mi NW 5.8 mph - N/A   Clear
5:36 PM 68.0 °F 53.6 °F 60% 29.94 in 10.0 mi WSW 5.8 mph - N/A   Clear
5:56 PM 66.2 °F 53.6 °F 64% 29.94 in 10.0 mi WNW 5.8 mph - N/A   Clear
6:16 PM 64.4 °F 53.6 °F 68% 29.94 in 10.0 mi West 4.6 mph - N/A   Clear
6:36 PM 66.2 °F 53.6 °F 64% 29.94 in 10.0 mi West 6.9 mph - N/A   Clear
6:56 PM 64.4 °F 53.6 °F 68% 29.94 in 10.0 mi West 3.5 mph - N/A   Clear
7:16 PM 62.6 °F 53.6 °F 72% 29.94 in 10.0 mi WNW 4.6 mph - N/A   Clear
7:36 PM 60.8 °F 51.8 °F 72% 29.95 in 10.0 mi WSW 5.8 mph - N/A   Clear
7:56 PM 60.8 °F 51.8 °F 72% 29.96 in 10.0 mi Calm Calm - N/A   Scattered Clouds
8:16 PM 60.8 °F 51.8 °F 72% 29.96 in 10.0 mi Calm Calm - N/A   Scattered Clouds
8:36 PM 59.0 °F 51.8 °F 77% 29.96 in 10.0 mi Calm Calm - N/A   Scattered Clouds
8:56 PM 57.2 °F 50.0 °F 77% 29.96 in 10.0 mi South 3.5 mph - N/A   Scattered Clouds
9:16 PM 57.2 °F 51.8 °F 82% 29.97 in 10.0 mi Calm Calm - N/A   Scattered Clouds
9:36 PM 57.2 °F 50.0 °F 77% 29.98 in 10.0 mi Calm Calm - N/A   Scattered Clouds
9:56 PM 57.2 °F 50.0 °F 77% 29.98 in 10.0 mi Calm Calm - N/A   Scattered Clouds
10:16 PM 55.4 °F 50.0 °F 82% 29.97 in 10.0 mi Calm Calm - N/A   Scattered Clouds
10:36 PM 57.2 °F 50.0 °F 77% 29.97 in 10.0 mi SE 5.8 mph - N/A   Scattered Clouds
10:56 PM 57.2 °F 50.0 °F 77% 29.97 in 10.0 mi SSE 3.5 mph - N/A   Scattered Clouds
11:16 PM 55.4 °F 50.0 °F 82% 29.98 in 10.0 mi ESE 3.5 mph - N/A   Partly Cloudy
11:36 PM 55.4 °F 50.0 °F 82% 29.98 in 10.0 mi Calm Calm - N/A   Mostly Cloudy
11:56 PM 55.4 °F 51.8 °F 88% 29.98 in 10.0 mi Calm Calm - N/A   Scattered Clouds